This is the latest recevied weather packets stored in our database for station/object KI4BIY. If no packets are shown the sender has not sent any weather packets the latest 10 day(s).
| Time | Temp. | Humidity | Pressure | Rain* | Wind** | Luminosity | Snow |
|---|---|---|---|---|---|---|---|
| 1778193727 | 17.78° C | 54% | 1014.5 hPa | 0 mm | - | 19 W/m² | - |
| 1778193423 | 17.78° C | 62% | 1014.7 hPa | 0 mm | - | 20 W/m² | - |
| 1778193120 | 18.33° C | 62% | 1014.5 hPa | 0 mm | - | 20 W/m² | - |
| 1778192817 | 18.33° C | 56% | 1014.9 hPa | 0 mm | - | 21 W/m² | - |
| 1778192513 | 18.89° C | 54% | 1014.7 hPa | 0 mm | - | 22 W/m² | - |
| 1778192210 | 18.89° C | 52% | 1014.8 hPa | 0 mm | - | 22 W/m² | - |
| 1778191906 | 18.33° C | 58% | 1014.9 hPa | 0 mm | - | 23 W/m² | - |
| 1778191603 | 18.33° C | 53% | 1014.7 hPa | 0 mm | - | 23 W/m² | - |
| 1778191302 | 18.33° C | 60% | 1014.6 hPa | 0 mm | - | 25 W/m² | - |
| 1778190997 | 18.33° C | 59% | 1014.7 hPa | 0 mm | - | 25 W/m² | - |
| 1778190695 | 18.89° C | 59% | 1014.8 hPa | 0 mm | - | 25 W/m² | - |
| 1778190392 | 18.33° C | 55% | 1014.9 hPa | 0 mm | - | 26 W/m² | - |
| 1778190088 | 18.33° C | 51% | 1014.6 hPa | 0 mm | - | 27 W/m² | - |
| 1778189784 | 18.33° C | 59% | 1014.7 hPa | 0 mm | - | 34 W/m² | - |
| 1778189482 | 18.89° C | 60% | 1014.8 hPa | 0 mm | - | 32 W/m² | - |
| 1778189178 | 18.89° C | 55% | 1014.7 hPa | 0 mm | - | 29 W/m² | - |
| 1778188875 | 18.89° C | 57% | 1014.4 hPa | 0 mm | - | 29 W/m² | - |
| 1778188571 | 18.89° C | 54% | 1014.5 hPa | 0 mm | - | 32 W/m² | - |
| 1778188267 | 18.89° C | 59% | 1014.5 hPa | 0 mm | - | 34 W/m² | - |
| 1778187965 | 18.89° C | 55% | 1014.7 hPa | 0 mm | - | 42 W/m² | - |
| 1778187661 | 18.89° C | 57% | 1014.8 hPa | 0 mm | - | 34 W/m² | - |
| 1778187358 | 18.89° C | 57% | 1014.6 hPa | 0 mm | - | 35 W/m² | - |
| 1778187054 | 18.89° C | 53% | 1014.9 hPa | 0 mm | - | 39 W/m² | - |
| 1778186751 | 18.89° C | 57% | 1015.1 hPa | 0 mm | - | 38 W/m² | - |
| 1778186448 | 18.89° C | 52% | 1015.1 hPa | 0 mm | - | 93 W/m² | - |
* Rain latest hour (hover to see other rain measurements)
** Current wind speed in m/s (hover to see current wind gust speed)